Location: Balaclava NSW 2575, Australia
(34.4510°S, 150.4953°E)
Time: 21:11:48
(UTC+10:00)

Hubble Space Telescope - Pass Details

Date: 18 May 2021
Orbit: 535 x 539 km, 28.5° (Epoch: 19 June)

Event Time Altitude Azimuth Distance (km) Brightness Sun altitude
Rises 19:33:56 0° 286° (WNW) 2,689 5.4 -31.1°
Reaches altitude 10° 19:36:20 10° 294° (WNW) 1,798 4.2 -31.6°
Enters shadow 19:37:42 19° 305° (NW) 1,332 3.3 -31.9°
